NIMIQ 6                 
1 38342U 12026A   19266.13181677 -.00000183  00000-0  00000+0 0  9991
2 38342   0.0181 172.2080 0002542   9.4094 136.4238  1.00270935 26935
BREEZE-M R/B            
1 38343U 12026B   19266.33114358 -.00000135  00000-0  00000+0 0  9993
2 38343  12.2450 332.8206 4155618  35.7262 346.0484  1.76698801 47529
BREEZE-M DEB [TANK]     
1 38344U 12026C   19265.56573541  .00006980  00000-0  44623-3 0  9997
2 38344  49.3664  48.5491 6388498 317.2425   7.8044  3.51938226 92280
BREEZE-M DEB            
1 41317U 12026D   19266.20553007 -.00000130  00000-0  00000+0 0  9997
2 41317  12.2210 330.1666 4131320  42.1335 343.1711  1.79269833 24489
BREEZE-M DEB            
1 41318U 12026E   19265.46869542 -.00000131  00000-0  00000+0 0  9990
2 41318  12.4169 335.7878 4134871  31.8209 347.6044  1.76517399 23768
BREEZE-M DEB            
1 41319U 12026F   19266.37117919 -.00000136  00000-0  00000+0 0  9991
2 41319  12.4259 335.7965 4127784  31.9790 347.5089  1.76693911 24165
BREEZE-M DEB            
1 41320U 12026G   19266.34893635 -.00000137  00000-0  00000+0 0  9997
2 41320  12.3532 335.1359 4150888  32.1327 347.5294  1.76040157 24066
BREEZE-M DEB            
1 41321U 12026H   19265.40887930 -.00000130  00000-0  00000+0 0  9998
2 41321  12.4146 335.1707 4137666  33.3941 346.9595  1.77033886 24171
BREEZE-M DEB            
1 41322U 12026J   19265.75176427 -.00000130  00000-0  00000+0 0  9999
2 41322  12.1890 331.8953 4122788  36.8585 345.4381  1.77206515 24068
BREEZE-M DEB            
1 41323U 12026K   19265.38976619 -.00000128  00000-0  00000+0 0  9997
2 41323  12.1230 329.9239 4149384  40.2906 344.0722  1.77768122 24149
BREEZE-M DEB            
1 41324U 12026L   19265.78567149 -.00000127  00000-0  00000+0 0  9995
2 41324  12.3085 330.9360 4130578  42.1022 343.1812  1.79762566 24139
BREEZE-M DEB            
1 43401U 12026N   19266.17338590 -.00000136  00000-0  00000+0 0  9993
2 43401  12.0242 335.2390 4126273  29.9931 335.1582  1.75795439 45600